Location: Dalton
(34.7700°N, 84.9700°W)
Time: 12:15:26
(UTC-04:00)

Tiangong 1 - Pass Details

Date: 15 October 2017
Orbit: 293 x 320 km, 42.8° (Epoch: 20 October)

Event Time Altitude Azimuth Distance (km) Brightness Sun altitude
Rises 20:14:17 0° 299° (WNW) 2,040 5.8 -15.0°
Reaches altitude 10° 20:16:17 10° 303° (WNW) 1,204 4.5 -15.4°
Maximum altitude 20:18:57 66° 26° (NNE) 341 0.6 -16.0°
Enters shadow 20:19:12 60° 63° (ENE) 356 0.5 -16.0°
